RH
61 69 68 71 74 74 75 71 73 68 81 81 80 84 89 90 89 90 95 95 98 96
62 65 68 69 72 76 75 62 64 68 81 83 75 85 85 88 87 89 92 94 94 95
62 64 67 70 71 72 74 74 73 72 78 78 75 83 84 87 82 85 88 87 90 91
65 65 66 70 71 72 73 74 72 73 74 78 75 85 81 85 81 82 83 85 89 88
64 64 65 68 68 71 71 74 72 72 76 76 76 88 88 85 82 81 84 82 85 84
64 64 63 66 67 66 70 71 71 70 75 78 82 86 87 84 81 79 81 81 83 80
61 64 63 63 65 67 68 72 72 70 72 79 78 83 83 75 78 76 75 82 85 80
58 62 59 61 64 67 68 69 70 70 72 77 72 74 82 78 79 72 75 78 78 81
55 56 55 58 64 65 68 66 72 73 74 77 63 89 85 82 80 74 75 75 78 70
51 51 50 52 59 63 71 70 74 73 72 75 80 86 80 86 78 79 78 75 77 68
52 44 46 54 59 67 69 69 73 74 73 74 63 84 85 85 78 79 79 78 78 78
48 47 50 55 62 68 69 70 71 67 69 72 72 78 84 85 77 71 74 67 75 70
50 51 54 59 64 67 65 65 64 63 68 72 70 79 81 84 75 73 72 71 61 67
49 52 55 61 65 63 64 65 70 70 72 72 70 73 78 83 82 82 83 77 74 66
Wind_Speed
7 4 4 5 5 5 4 6 7 11 6 8 10 11 9 7 7 9 9 12 7 8
4 5 5 7 6 4 5 7 9 10 6 6 10 9 10 7 9 9 7 9 9 7
5 5 5 5 6 7 7 6 7 8 7 7 8 8 9 9 10 11 9 7 9 8
4 4 5 5 5 6 7 7 7 6 6 7 8 7 9 9 11 13 13 12 9 11
4 4 5 5 6 6 6 7 6 6 5 6 6 5 6 7 8 12 13 13 12 11
4 4 5 6 5 6 6 6 6 6 6 5 5 4 5 5 7 9 10 12 12 11
4 5 5 5 5 6 6 6 5 5 6 6 4 3 5 7 7 8 8 10 8 10
6 5 4 4 5 6 6 5 5 5 6 6 2 1 3 6 7 9 9 9 8 6
5 5 3 4 5 5 5 6 6 5 5 6 3 4 1 5 5 7 8 10 8 9
6 5 3 4 5 6 5 4 6 7 6 5 3 4 5 8 3 4 6 9 7 9
6 5 3 4 6 5 3 5 4 6 6 3 4 6 7 9 4 3 4 7 6 8
6 6 5 5 7 6 4 5 5 5 3 2 4 8 5 7 5 6 5 7 6 9
8 7 6 6 7 5 4 5 4 5 3 4 3 3 4 5 4 8 7 6 10 14
7 7 6 6 5 5 5 4 5 5 5 5 5 5 7 5 4 6 7 7 8 8
Wind_Direction
3 354 339 336 338 342 347 334 328 337 344 353 349 357 2 4 6 349 337 334 290 248
359 360 348 344 339 337 333 333 336 331 346 351 352 10 355 356 351 344 342 330 340 332
353 353 351 339 336 336 327 326 330 326 346 344 350 15 3 345 352 344 340 334 335 337
336 344 351 337 327 327 324 320 328 328 338 344 346 6 4 349 352 343 338 335 334 342
328 338 337 320 322 328 320 314 316 334 340 337 339 9 356 348 348 342 335 329 336 349
319 314 310 308 313 321 313 310 324 343 336 320 319 336 349 333 338 337 328 325 338 343
295 281 283 297 304 305 303 313 325 333 323 316 328 27 343 335 332 335 330 317 325 346
262 263 273 294 296 294 304 305 308 317 311 303 328 107 5 327 318 340 336 331 320 343
250 249 263 289 291 295 297 314 309 308 309 314 349 132 271 302 322 331 331 334 353 354
226 223 256 284 291 293 281 302 305 307 307 327 28 212 286 303 323 320 332 332 358 350
210 203 245 280 281 278 270 291 285 291 301 353 360 241 291 329 311 334 334 323 339 333
191 206 226 259 270 263 268 280 273 264 292 353 325 336 310 332 331 327 327 320 312 325
192 207 224 243 255 246 235 258 270 276 261 258 270 315 292 317 329 325 320 315 322 325
188 200 221 243 248 243 257 266 282 270 274 263 246 265 294 307 325 307 313 325 326 316